Regional Weather Roundup
Issued by NWS

Home | Current Version | Previous Version | Text Only | Print | Product List | Glossary Off
Versions: 1 2 3 4 5 6 7 8 9 10 11 12 13 14 15 16 17 18 19 20 21 22 23 24 25 26 27 28 29 30 31 32 33 34 35 36 37 38 39 40 41 42 43 44 45 46 47 48 49 50

344
ASUS43 KMPX 280501
RWRMN
WEATHER ROUNDUP FOR MINNESOTA
NATIONAL WEATHER SERVICE TWIN CITIES/CHANHASSEN MN
1200 AM CDT SAT MAY 28 2016


NOTE: "FAIR" INDICATES FEW OR NO CLOUDS BELOW 12,000 FEET WITH NO
SIGNIFICANT WEATHER AND/OR OBSTRUCTIONS TO VISIBILITY. N/A MEANS
CURRENT SKY AND/OR WEATHER CONDITIONS ARE NOT AVAILABLE.

MNZ060>063-068>070-280600-
   Twin Cities Metro

CITY           SKY/WX    TMP DP  RH WIND       PRES   REMARKS
TWIN CITIES    CLOUDY    64  60  87 NW5       29.77R
ST PAUL        MOCLDY    63  61  93 NW3       29.77R
CRYSTAL        CLOUDY    64  59  83 SW3       29.76R
BLAINE         CLOUDY    63  63 100 NW3       29.77R
EDEN PRAIRIE   CLOUDY    64  59  83 CALM      29.77R
SOUTH ST PAUL  CLOUDY    64  62  93 W3        29.77R
LAKE ELMO      CLOUDY    63  63 100 W3        29.78R
$$
MNZ001>005-007-008-013>017-022>024-027-028-280600-
   Northwest Minnesota

CITY           SKY/WX    TMP DP  RH WIND       PRES   REMARKS
BEMIDJI        MOCLDY    52  51  97 N3        29.84R
HALLOCK        CLOUDY    63  59  88 NE3       29.81S
ROSEAU         CLEAR     59  54  82 E6        29.85R
WARROAD        CLEAR     57  54  88 E3        29.87R
THIEF RVR FALL CLOUDY    61  54  77 E8        29.84R
CROOKSTON      MOCLDY    61  59  94 E5        29.81R
FOSSTON        CLOUDY    57  55  94 CALM      29.84R
DETROIT LAKES  CLOUDY    61  54  77 SE5       29.82S
MOORHEAD       MOCLDY    63  57  82 SE5       29.80S
PARK RAPIDS    CLOUDY    58  54  86 NE3       29.82R
MAHNOMEN       MOCLDY    60  55  85 E5        29.82S
$$
MNZ006-009>011-018-025>026-280600-
   North Central Minnesota

CITY           SKY/WX    TMP DP  RH WIND       PRES   REMARKS
BAUDETTE       PTCLDY    56  51  84 E5        29.86R
FLAG ISLAND    CLEAR     63  55  77 E7        29.86R
INTL FALLS     CLOUDY    61  54  77 E5        29.85F
WASKISH        CLOUDY    59  55  88 E5        29.85S
BIG FORK       CLOUDY    57  55  94 CALM      29.85S
LONGVILLE      CLOUDY    55  55 100 N5        29.81F
GRAND RAPIDS   CLOUDY    58  55  90 NW5       29.83F
CRANE LAKE     CLOUDY    55  54  94 CALM      29.87F
ORR            CLOUDY    57  54  88 CALM      29.84R
COOK           CLOUDY    57  52  82 NE3       29.86S
WALKER         CLOUDY    57  55  91 NE6       29.82S
$$
MNZ012-019>021-037-280600-
   Northeast Minnesota

CITY           SKY/WX    TMP DP  RH WIND       PRES   REMARKS
DULUTH         CLOUDY    54  52  93 E12       29.80F FOG
ELY            LGT RAIN  55  54  94 NE7       29.85S
HIBBING        CLOUDY    58  51  78 NE8       29.82S
EVELETH        CLOUDY    57  52  82 NE6       29.84R
DULUTH HARBOR  CLOUDY    46  46 100 E12       29.81F
TWO HARBORS    DRIZZLE   55  52  88 NE7       29.79F
SILVER BAY     RAIN      55  54  94 NE12G20   29.79F
GRAND MARAIS     N/A     57  53  86 NE10      29.83F
G MARAIS ARPRT LGT RAIN  54  48  82 N13       29.86F
$$
MNZ029>031-032-039>041-046>048-054>057-064-280600-
   West Central Minnesota

CITY           SKY/WX    TMP DP  RH WIND       PRES   REMARKS
FERGUS FALLS   CLOUDY    61  55  82 E7        29.77S
WHEATON        CLOUDY    63  59  88 E6        29.81R
MORRIS         MOCLDY    61  57  88 E8        29.78S
ALEXANDRIA     CLOUDY    59  55  87 E8        29.81S
ELBOW LAKE     FAIR      58  57  94 E5        29.80S
WADENA         CLOUDY    55  54  94 CALM      29.81R
GLENWOOD       CLOUDY    59  57  94 E5        29.81R
APPLETON       CLOUDY    64  57  77 E8        29.78R
ORTONVILLE     CLOUDY    63  57  82 E7        29.78S
MADISON        MOCLDY    63  57  82 E8        29.78R
WILLMAR        CLOUDY    63  57  82 E7        29.80S
$$
MNZ033>034-036-042>043-049>051-058-059-280600-
   Central Minnesota

CITY           SKY/WX    TMP DP  RH WIND       PRES   REMARKS
ST CLOUD       CLOUDY    58  57  97 CALM      29.79R
SAUK CENTRE    MOCLDY    57  56  96 CALM      29.80R
PAYNESVILLE    CLOUDY    60  58  94 NE3       29.80R
AITKIN         CLOUDY    57  52  82 NE5       29.79S
PINE RIVER     CLOUDY    57  55  94 NE5       29.84F
BRAINERD       CLOUDY    58  55  90 NE6       29.80S
STAPLES        CLOUDY    55  54  94 W3        29.81R
LONG PRAIRIE   MOCLDY    55  55 100 CALM      29.81R
LITTLE FALLS   CLOUDY    57  54  88 E5        29.79S
LITCHFIELD     CLOUDY    63  61  94 N3        29.80R
BUFFALO        CLOUDY    59  57  92 CALM      29.80R FOG
MAPLE LAKE     CLOUDY    60  59  97 CALM      29.80R FOG
HUTCHINSON     CLOUDY    61  60  96 N5        29.80R
$$
MNZ037-044-045-052-053-280600-
   East Central Minnesota

CITY           SKY/WX    TMP DP  RH WIND       PRES   REMARKS
PRINCETON        N/A     57  55  94 CALM      29.79R
MORA           CLOUDY    54  50  87 CALM      29.80S
CAMBRIDGE      CLOUDY    59  52  77 CALM      29.76S
RUSH CITY      CLOUDY    58  55  92 NE3       29.77S
MOOSE LAKE     CLOUDY    52  50  93 NE8       29.78R
HINCKLEY       CLOUDY    55  55 100 N3        29.78S
CLOQUET        CLOUDY    54  52  94 E6        29.80S
MCGREGOR       CLOUDY    55  54  94 NE5       29.80S
$$
MNZ071>073-080-081-089-090-097-098-280600-
   Southwest Minnesota

CITY           SKY/WX    TMP DP  RH WIND       PRES   REMARKS
MONTEVIDEO     CLOUDY    63  57  82 SE8       29.80R
GRANITE FALLS  CLOUDY    64  60  88 NE7       29.79R
CANBY          MOCLDY    63  60  89 CALM      29.78R
MARSHALL       PTCLDY    64  60  87 NE5       29.77R
REDWOOD FALLS  MOCLDY    62  60  93 NE3       29.76R
OLIVIA         MOCLDY    59  55  88 NE5       29.77R
PIPESTONE      MOCLDY    64  57  77 CALM      29.76F
WINDOM         CLOUDY    64  61  88 E7        29.77S
WORTHINGTON    MOCLDY    64  60  87 E8        29.77S
JACKSON        MOCLDY    66  59  77 E9        29.77S
TRACY          CLOUDY    64  59  86 CALM      29.77R
SLAYTON        CLOUDY    64  58  83 E3        29.77F
$$
MNZ065>067-074>077-082>085-091>093-280600-
   South Central Minnesota

CITY           SKY/WX    TMP DP  RH WIND       PRES   REMARKS
MANKATO        CLOUDY    63  59  88 SE6       29.77S
NEW ULM        CLOUDY    63  61  94 E10       29.77R
ST JAMES       CLOUDY    61  57  88 E6        29.78S
FAIRMONT       CLOUDY    66  61  82 E7        29.77S
GLENCOE        CLOUDY    62  62  99 N5        29.78R
FARIBAULT      MOCLDY    61  59  94 CALM      29.77F
OWATONNA       CLOUDY    61  57  88 CALM      29.77S FOG
WASECA         CLOUDY    63  59  88 E3        29.78S
ALBERT LEA     CLOUDY    63  63 100 CALM      29.77R
$$
MNZ078>079-086>088-094>096-280600-
   Southeast Minnesota

CITY           SKY/WX    TMP DP  RH WIND       PRES   REMARKS
ROCHESTER      CLOUDY    62  62 100 CALM      29.77S
RED WING       CLOUDY    61  61 100 CALM      29.75R FOG
STANTON        CLOUDY    61  59  94 CALM      29.75S FOG
DODGE CENTER   CLOUDY    61  59  94 CALM      29.77S FOG
WINONA         MOCLDY    66  64  94 CALM      29.75F
AUSTIN         CLOUDY    63  61  94 CALM      29.76R
PRESTON        CLOUDY    62  60  94 N5        29.76F FOG
$$
ABBREVIATIONS USED IN REMARKS
   TC - TEMPERATURES IN CELSIUS
  WCI - WIND CHILL INDEX
   HX - HEAT INDEX
  VSB - VISIBILITY
$$




USA.gov is the U.S. government's official web portal to all federal, state and local government web resources and services.